Weather History for Shelton, WA

Change the Weather History Date:

Friday, March 8, 2013

  Actual Average Record
Temperature  
Mean Temperature 42 °F -  
Max Temperature 53 °F 53 °F 69 °F (1984)
Min Temperature 30 °F 35 °F 25 °F (2002)
Degree Days  
Heating Degree Days 24    
Moisture  
Dew Point 35 °F    
Average Humidity 90    
Maximum Humidity 100    
Minimum Humidity 55    
Precipitation  
Precipitation 0.00 in - - ()
Sea Level Pressure  
Sea Level Pressure 30.11 in    
Wind  
Wind Speed 1 mph (North)    
Max Wind Speed 6 mph    
Max Gust Speed -    
Visibility 6 miles    
Events      
Averages and records for this station are not official NWS values.
T = Trace of Precipitation, MM = Missing Value Source: NWS Daily Summary

Daily Weather History Graph

Daily Weather History Graph

Search for Another Location

Airport:

Trip Planner

Search our weather history database for the weather conditions in past years. The results will help you decide how hot, cold, wet, or windy it might be!

Date:

Astronomy

Mar. 08, 2013 Rise Set
Actual Time 6:38 AM PST 6:08 PM PST
Civil Twilight 6:08 AM PST 6:39 PM PST
Nautical Twilight 5:32 AM PST 7:14 PM PST
Astronomical Twilight 4:56 AM PST 7:50 PM PST
Moon 4:37 AM PST (3/8) 3:00 PM PST (3/8)
Length of Visible Light 12h 31m
Length of Day
11h 30m
Waning Crescent, 11% of the Moon is Illuminated
Mar 8
Waning Crescent
Mar 11
New
Mar 19
First Quarter
Mar 27
Full
Apr 2
Last Quarter

Hourly Weather History & Observations

Time (PST) Temp. Windchill Dew Point Humidity Pressure Visibility Wind Dir Wind Speed Gust Speed Precip Events Conditions
12:16 AM 32.0 °F - 30.2 °F 93% 30.06 in 2.0 mi Calm Calm - N/A   Overcast
12:28 AM 30.2 °F - 30.2 °F 100% 30.07 in 3.0 mi Calm Calm - N/A   Overcast
12:53 AM 30.0 °F - 30.0 °F 100% 30.08 in 9.0 mi Calm Calm - N/A   Overcast
1:39 AM 30.2 °F - 30.2 °F 100% 30.07 in 1.8 mi Calm Calm - N/A   Overcast
1:53 AM 30.9 °F - 30.9 °F 100% 30.09 in 1.0 mi Calm Calm - N/A   Mist
2:51 AM 32.0 °F - 30.2 °F 93% 30.07 in 2.0 mi Calm Calm - N/A   Overcast
2:53 AM 32.0 °F - 32.0 °F 100% 30.09 in 2.0 mi Calm Calm - N/A   Overcast
3:00 AM 32.0 °F - 32.0 °F 100% 30.07 in 1.2 mi Calm Calm - N/A   Overcast
3:12 AM 32.0 °F - 32.0 °F 100% 30.07 in 0.8 mi Calm Calm - N/A   Mist
3:27 AM 32.0 °F - 32.0 °F 100% 30.06 in 1.2 mi Calm Calm - N/A   Overcast
3:40 AM 32.0 °F - 32.0 °F 100% 30.06 in 2.5 mi Calm Calm - N/A   Overcast
3:53 AM 32.0 °F - 32.0 °F 100% 30.08 in 2.0 mi Calm Calm - N/A   Overcast
4:00 AM 33.8 °F - 33.8 °F 100% 30.07 in 1.5 mi Calm Calm - N/A   Overcast
4:18 AM 33.8 °F - 33.8 °F 100% 30.07 in 2.5 mi Calm Calm - N/A   Overcast
4:53 AM 34.0 °F - 34.0 °F 100% 30.09 in 1.5 mi Calm Calm - N/A   Overcast
5:53 AM 34.0 °F - 34.0 °F 100% 30.09 in 1.2 mi Calm Calm - N/A   Overcast
6:53 AM 36.0 °F - 36.0 °F 100% 30.10 in 1.0 mi Calm Calm - N/A   Mist
7:26 AM 35.6 °F - 35.6 °F 100% 30.08 in 3.0 mi Calm Calm - N/A   Overcast
7:53 AM 37.0 °F - 36.0 °F 96% 30.10 in 10.0 mi Calm Calm - N/A   Overcast
8:01 AM 37.4 °F 34.9 °F 35.6 °F 93% 30.09 in 10.0 mi North 3.5 mph - N/A   Overcast
8:32 AM 37.4 °F - 37.4 °F 100% 30.10 in 10.0 mi Calm Calm - N/A   Overcast
8:53 AM 39.0 °F 36.8 °F 37.9 °F 96% 30.12 in 10.0 mi North 3.5 mph - N/A   Overcast
9:00 AM 39.2 °F - 37.4 °F 93% 30.11 in 10.0 mi Calm Calm - N/A   Overcast
9:53 AM 42.1 °F 40.2 °F 39.0 °F 89% 30.13 in 10.0 mi Variable 3.5 mph - N/A   Overcast
10:53 AM 44.1 °F 41.5 °F 39.0 °F 82% 30.13 in 10.0 mi Variable 4.6 mph - N/A   Overcast
11:17 AM 44.6 °F - 39.2 °F 81% 30.12 in 10.0 mi Calm Calm - N/A   Overcast
11:53 AM 45.0 °F - 39.0 °F 80% 30.13 in 10.0 mi Calm Calm - N/A   Overcast
12:53 PM 46.0 °F - 39.0 °F 76% 30.12 in 10.0 mi Calm Calm - N/A   Mostly Cloudy
1:44 PM 50.0 °F - 39.2 °F 66% 30.09 in 10.0 mi Variable 3.5 mph - N/A   Partly Cloudy
1:53 PM 50.0 °F - 39.0 °F 66% 30.10 in 10.0 mi ESE 3.5 mph - N/A   Partly Cloudy
2:53 PM 52.0 °F - 39.0 °F 61% 30.11 in 10.0 mi North 4.6 mph - N/A   Clear
3:53 PM 53.1 °F - 39.0 °F 59% 30.10 in 10.0 mi NNE 5.8 mph - N/A   Clear
4:53 PM 53.1 °F - 37.0 °F 55% 30.11 in 10.0 mi NNE 3.5 mph - N/A   Clear
5:53 PM 48.0 °F - 39.0 °F 71% 30.13 in 10.0 mi North 5.8 mph - N/A   Mostly Cloudy
6:53 PM 46.0 °F 43.9 °F 39.9 °F 79% 30.16 in 10.0 mi North 4.6 mph - N/A   Mostly Cloudy
7:53 PM 43.0 °F - 39.0 °F 86% 30.19 in 10.0 mi Calm Calm - N/A   Clear
8:53 PM 36.0 °F - 36.0 °F 100% 30.20 in 10.0 mi Calm Calm - N/A   Partly Cloudy
9:53 PM 35.1 °F - 35.1 °F 100% 30.22 in 10.0 mi Calm Calm - N/A   Partly Cloudy
10:53 PM 32.0 °F - 30.9 °F 96% 30.23 in 6.0 mi Calm Calm - N/A   Clear
11:06 PM 32.0 °F - 30.2 °F 93% 30.21 in 8.0 mi Calm Calm - N/A   Scattered Clouds
11:26 PM 30.2 °F - 28.4 °F 93% 30.22 in 10.0 mi Calm Calm - N/A   Mostly Cloudy
11:53 PM 30.0 °F - 30.0 °F 100% 30.24 in 9.0 mi Calm Calm - N/A   Mostly Cloudy